Regional Weather Roundup
Issued by NWS

Home | Current Version | Previous Version | Graphics & Text | Print | Product List | Glossary On
Versions: 1 2 3 4 5 6 7 8 9 10 11 12 13 14 15 16 17 18 19 20 21 22 23 24 25 26 27 28 29 30 31 32 33 34 35 36 37 38 39 40 41 42 43 44 45 46 47 48 49 50
000
ASUS45 KCYS 241710
RWRWY

WYOMING REGIONAL WEATHER ROUNDUP
NATIONAL WEATHER SERVICE CHEYENNE WY
1000 AM MST FRI FEB 24 2017

NOTE:  "FAIR" INDICATES FEW OR NO CLOUDS BELOW 12,000 FEET
WITH NO SIGNIFICANT WEATHER AND/OR OBSTRUCTIONS TO VISIBILITY.

WYZ001-241800-
YELLOWSTONE NATIONAL PARK

CITY           SKY/WX    TMP DP  RH WIND       PRES   REMARKS
LK YELLOWSTONE   N/A      9   5  84 CALM      29.85R
W YELLOWSTONE  NOT AVBL

$$
WYZ002>013-054>058-071-098>099-241800-
NORTHERN WYOMING

CITY           SKY/WX    TMP DP  RH WIND       PRES   REMARKS
JACKSON        MOSUNNY   16  12  86 S8        29.89R WCI   5
CODY           CLOUDY    23  15  71 S6        29.93S WCI  16
GREYBULL       LGT SNOW  25  21  85 S3        29.98R FOG
WORLAND        LGT SNOW  23  21  92 CALM      29.97R FOG
SHERIDAN       FAIR      24  17  74 SE13      29.97S WCI  12
BUFFALO        CLOUDY    22  17  81 S10       29.94R HAZE    WCI  11
GILLETTE       CLOUDY    23  18  81 S6        29.98R HAZE    WCI  16
HULETT         CLOUDY    27  18  69 MISG      30.00S
NEWCASTLE      LGT SNOW  21  19  93 S8        30.02S VSB 1   WCI  12

$$
WYZ014>020-022>026-101>103-241800-
CENTRAL WYOMING

CITY           SKY/WX    TMP DP  RH WIND       PRES   REMARKS
BIG PINEY      CLOUDY    14  10  84 SE3       29.87R
PINEDALE       FAIR      16  10  79 W5        29.88R WCI   9
DUBOIS         LGT SNOW  14   9  79 CALM      29.84R
LANDER         CLOUDY    19  14  81 CALM      29.91S
RIVERTON       CLOUDY    17  16  95 CALM      29.93R FOG
CASPER         CLOUDY    17  14  88 CALM      29.94R FOG
DOUGLAS        CLOUDY    17  14  88 E3        29.97S FOG

$$
WYZ021-027>030-104>119-241800-
SOUTHERN WYOMING

CITY           SKY/WX    TMP DP  RH WIND       PRES   REMARKS
EVANSTON       CLOUDY    15   9  76 SW13      29.90R WCI   1
FORT BRIDGER   PTSUNNY   17  13  86 W12       29.92R WCI   4
ROCK SPRINGS   LGT SNOW  16  12  84 CALM      29.89R FOG
DIXON          LGT SNOW  17  10  74 W7        29.92R WCI   8
RAWLINS        LGT SNOW  15   8  73 NE10      29.85R WCI   2
SARATOGA       CLOUDY    18   9  68 W13G20    29.83R WCI   4
LARAMIE        CLOUDY    10   6  84 W5        29.81R WCI   2
CHEYENNE       LGT SNOW  16   9  74 N5        29.90S WCI   9
TORRINGTON     LGT SNOW  20  16  84 W5        30.01R FOG     WCI  13
PINE BLUFFS    CLOUDY    19  14  79 NW5       29.96R WCI  13

$$



USA.gov is the U.S. government's official web portal to all federal, state and local government web resources and services.